Weather History for Atwater, CA

Change the Weather History Date:

Monday, April 14, 2014

  Actual Average (KMCE) Record (KMCE)
Temperature  
Mean Temperature 66 °F 58 °F  
Max Temperature 86 °F 72 °F 87 °F (2002)
Min Temperature 46 °F 45 °F 35 °F (1960)
Degree Days  
Heating Degree Days 0    
Month to date heating degree days  
Since 1 July heating degree days  
Cooling Degree Days 1    
Month to date cooling degree days  
Year to date cooling degree days  
Growing Degree Days 16 (Base 50)    
Moisture  
Dew Point 49 °F    
Average Humidity 73    
Maximum Humidity 100    
Minimum Humidity 19    
Precipitation  
Precipitation 0.00 in 0.04 in 0.19 in (2007)
Month to date precipitation 0.46  
Year to date precipitation 7.48  
Since 1 July precipitation 11.30  
Snow  
Snow 0.00 in - - ()
Month to date snowfall  
Since 1 July snowfall  
Snow Depth -    
Sea Level Pressure  
Sea Level Pressure 30.02 in    
Wind  
Wind Speed 1 mph (North)    
Max Wind Speed 9 mph    
Max Gust Speed -    
Visibility 10 miles    
Events      
T = Trace of Precipitation, MM = Missing Value Source: NWS Daily Summary

Daily Weather History Graph

Daily Weather History Graph

Search for Another Location

Airport:

Trip Planner

Search our weather history database for the weather conditions in past years. The results will help you decide how hot, cold, wet, or windy it might be!

Date:

Astronomy

Apr. 14, 2014 Rise Set
Actual Time 6:28 AM PDT 7:36 PM PDT
Civil Twilight 6:01 AM PDT 8:03 PM PDT
Nautical Twilight 5:29 AM PDT 8:35 PM PDT
Astronomical Twilight 4:56 AM PDT 9:09 PM PDT
Moon 7:20 PM PDT (4/14) 6:03 AM PDT (4/14)
Length of Visible Light 14h 01m
Length of Day
13h 07m
Full, 100% of the Moon is Illuminated
Apr 14
Full
Apr 15
Full
Apr 22
Last Quarter
Apr 28
New
May 6
First Quarter

Hourly Weather History & Observations

Time (PDT) Temp. Dew Point Humidity Pressure Visibility Wind Dir Wind Speed Gust Speed Precip Events Conditions
12:15 AM 57.2 °F 55.4 °F 94% 29.99 in 10.0 mi Calm Calm - N/A   Clear
12:35 AM 57.2 °F 55.4 °F 94% 30.00 in 10.0 mi Calm Calm - N/A   Clear
12:55 AM 55.4 °F 55.4 °F 100% 30.00 in 10.0 mi Calm Calm - N/A   Clear
1:15 AM 55.4 °F 55.4 °F 100% 30.00 in 10.0 mi Calm Calm - N/A   Clear
1:35 AM 53.6 °F 53.6 °F 100% 30.00 in 10.0 mi Calm Calm - N/A   Clear
1:55 AM 51.8 °F 51.8 °F 100% 30.00 in 10.0 mi Calm Calm - N/A   Clear
2:15 AM 51.8 °F 51.8 °F 100% 29.99 in 10.0 mi Calm Calm - N/A   Clear
2:35 AM 51.8 °F 51.8 °F 100% 29.99 in 10.0 mi Calm Calm - N/A   Clear
2:55 AM 53.6 °F 53.6 °F 100% 29.99 in 10.0 mi Calm Calm - N/A   Clear
3:15 AM 48.2 °F 48.2 °F 100% 29.99 in 10.0 mi Calm Calm - N/A   Clear
3:35 AM 48.2 °F 48.2 °F 100% 29.99 in 9.0 mi Calm Calm - N/A   Clear
3:55 AM 48.2 °F 48.2 °F 100% 30.00 in 9.0 mi Calm Calm - N/A   Clear
4:15 AM 50.0 °F 50.0 °F 100% 30.00 in 9.0 mi Calm Calm - N/A   Clear
4:35 AM 48.2 °F 48.2 °F 100% 30.00 in 9.0 mi Calm Calm - N/A   Clear
4:55 AM 48.2 °F 48.2 °F 100% 30.01 in 8.0 mi Calm Calm - N/A   Clear
5:15 AM 46.4 °F 46.4 °F 100% 30.01 in 9.0 mi Calm Calm - N/A   Clear
5:35 AM 48.2 °F 48.2 °F 100% 30.01 in 9.0 mi Calm Calm - N/A   Clear
5:55 AM 46.4 °F 46.4 °F 100% 30.02 in 9.0 mi Calm Calm - N/A   Clear
6:45 AM 46.4 °F 46.4 °F 100% 30.04 in 6.0 mi Calm Calm - N/A   Clear
7:45 AM 53.6 °F 53.6 °F 100% 30.06 in 7.0 mi Calm Calm - N/A   Clear
8:45 AM 64.4 °F 60.8 °F 88% 30.07 in 7.0 mi Calm Calm - N/A   Clear
9:45 AM 69.8 °F 55.4 °F 60% 30.08 in 7.0 mi Calm Calm - N/A   Clear
11:45 AM 78.8 °F 46.4 °F 32% 30.08 in 10.0 mi Calm Calm - N/A   Clear
12:45 PM 82.4 °F 39.2 °F 21% 30.07 in 10.0 mi Calm Calm - N/A   Clear
1:45 PM 84.2 °F 41.0 °F 22% 30.06 in 10.0 mi Calm Calm - N/A   Clear
2:50 PM 86.0 °F 44.6 °F 23% 30.04 in 10.0 mi Calm Calm - N/A   Clear
3:45 PM 86.0 °F 42.8 °F 22% 30.02 in 10.0 mi Calm Calm - N/A   Clear
4:45 PM 86.0 °F 39.2 °F 19% 30.01 in 10.0 mi NW 8.1 mph - N/A   Clear
5:45 PM 84.2 °F 39.2 °F 20% 30.00 in 10.0 mi North 6.9 mph - N/A   Clear
6:45 PM 78.8 °F 44.6 °F 30% 30.00 in 10.0 mi North 9.2 mph - N/A   Clear
7:45 PM 71.6 °F 48.2 °F 43% 30.00 in 10.0 mi Variable 3.5 mph - N/A   Clear
8:15 PM 71.6 °F 48.2 °F 43% 30.00 in 10.0 mi NNE 3.5 mph - N/A   Clear
8:35 PM 69.8 °F 48.2 °F 46% 30.00 in 10.0 mi NNE 6.9 mph - N/A   Clear
8:45 PM 68.0 °F 48.2 °F 49% 30.00 in 10.0 mi Calm Calm - N/A   Clear
9:15 PM 64.4 °F 50.0 °F 59% 30.01 in 10.0 mi Calm Calm - N/A   Clear
9:35 PM 62.6 °F 51.8 °F 68% 30.02 in 10.0 mi Calm Calm - N/A   Clear
10:15 PM 62.6 °F 50.0 °F 63% 30.02 in 10.0 mi Calm Calm - N/A   Clear
10:35 PM 60.8 °F 53.6 °F 77% 30.02 in 10.0 mi Calm Calm - N/A   Clear
10:55 PM 60.8 °F 53.6 °F 77% 30.02 in 10.0 mi Calm Calm - N/A   Clear
11:15 PM 62.6 °F 51.8 °F 68% 30.02 in 10.0 mi Calm Calm - N/A   Clear
11:35 PM 64.4 °F 50.0 °F 59% 30.02 in 10.0 mi North - - N/A   Clear
11:55 PM 60.8 °F 51.8 °F 72% 30.02 in 10.0 mi North - - N/A   Clear